EW5758 Weather Reports


time (UTC)temp
C
wind
direction
speed
KPH
gust
KPH
rain 1hr
cm
rain 24hr
cm
rain mn
cm
humidity
%
barometer
mb
20260505122039 12 174 16.1 0.0 0.00 0.00 0.71 84 1010.2
20260505121552 12 171 14.5 0.0 0.00 0.00 0.71 83 1009.3
20260505121524 12 128 14.5 0.0 0.00 0.00 0.71 83 1010.2
20260505121027 13 166 14.5 0.0 0.00 0.00 0.71 83 1010.2
20260505120516 13 127 17.7 0.0 0.00 0.00 0.71 81 1010.3
20260505120118 13 128 19.3 0.0 0.00 0.00 0.71 81 1009.4
20260505120026 13 140 19.3 0.0 0.00 0.00 0.71 81 1010.3
20260505115540 13 134 16.1 0.0 0.00 0.00 0.71 81 1010.4
20260505115028 13 147 16.1 0.0 0.00 0.00 0.71 83 1010.2
20260505114605 13 131 16.1 0.0 0.00 0.00 0.71 82 1009.3
20260505114521 13 130 16.1 0.0 0.00 0.00 0.71 82 1010.2
20260505114028 13 117 14.5 0.0 0.00 0.00 0.71 82 1010.1
20260505113522 13 141 12.9 0.0 0.00 0.00 0.71 83 1010.1
20260505113118 13 145 11.3 0.0 0.00 0.00 0.71 84 1009.1
20260505113038 13 94 11.3 0.0 0.00 0.00 0.71 85 1010.0
20260505095026 13 199 6.4 0.0 0.00 0.00 0.71 87 1010.1
20260505094701 13 213 6.4 0.0 0.00 0.00 0.71 88 1009.2
20260505094548 13 196 4.8 0.0 0.00 0.00 0.71 88 1010.2
20260505094013 13 210 3.2 0.0 0.00 0.00 0.71 88 1010.2
20260505093519 13 218 3.2 0.0 0.00 0.00 0.71 90 1010.2
20260505093059 12 231 3.2 0.0 0.00 0.00 0.71 90 1009.2
20260505093022 13 231 3.2 0.0 0.00 0.00 0.71 91 1010.1
20260505092518 12 192 3.2 0.0 0.00 0.00 0.71 91 1010.1
20260505092026 12 173 1.6 0.0 0.00 0.00 0.71 92 1010.1
20260505091526 12 182 3.2 0.0 0.00 0.00 0.71 91 1010.1
20260505091513 12 182 3.2 0.0 0.00 0.00 0.71 91 1009.1
20260505091049 12 190 1.6 0.0 0.00 0.00 0.71 92 1010.1
20260505090526 12 226 0.0 0.0 0.00 0.00 0.71 93 1010.1
20260505090047 11 226 0.0 0.0 0.00 0.00 0.71 93 1009.0
20260505090028 12 226 1.6 0.0 0.00 0.00 0.71 93 1010.0
20260505085528 12 226 1.6 0.0 0.00 0.00 0.71 94 1010.0
20260505085029 12 226 1.6 0.0 0.00 0.00 0.71 94 1010.0
20260505084557 11 226 1.6 0.0 0.00 0.00 0.71 95 1009.0
20260505084519 11 226 1.6 0.0 0.00 0.00 0.71 95 1009.9
20260505084016 11 226 1.6 0.0 0.00 0.00 0.71 95 1010.0
20260505083524 11 226 1.6 0.0 0.00 0.00 0.71 94 1010.0
20260505083028 11 226 1.6 0.0 0.00 0.00 0.71 94 1009.9
20260505083014 11 226 1.6 0.0 0.00 0.00 0.71 94 1009.0
20260505082537 11 226 1.6 0.0 0.00 0.00 0.71 94 1010.0
20260505082022 11 210 1.6 0.0 0.00 0.00 0.71 95 1010.0
20260505081555 11 210 1.6 0.0 0.00 0.00 0.71 95 1009.2
20260505081523 11 210 1.6 0.0 0.00 0.00 0.71 95 1010.1
20260505081026 11 204 1.6 0.0 0.00 0.00 0.71 95 1010.2
20260505080542 11 202 1.6 0.0 0.00 0.00 0.71 95 1010.2
20260505080050 11 191 3.2 0.0 0.00 0.00 0.71 95 1009.2
20260505080018 11 191 3.2 0.0 0.00 0.00 0.71 95 1010.2
20260505075524 11 191 3.2 0.0 0.00 0.00 0.71 95 1010.2
20260505075012 11 246 3.2 0.0 0.00 0.00 0.71 96 1010.1
20260505074604 11 269 3.2 0.0 0.00 0.00 0.71 96 1009.1
20260505074529 11 274 3.2 0.0 0.00 0.00 0.71 96 1010.1
20260505074114 11 255 3.2 0.0 0.00 0.00 0.71 95 1009.1
20260505073515 11 255 1.6 0.0 0.00 0.00 0.71 96 1010.2
20260505073117 11 255 3.2 0.0 0.00 0.00 0.71 96 1009.2
20260505073040 11 255 3.2 0.0 0.00 0.00 0.71 96 1010.1
20260505072523 11 271 3.2 0.0 0.00 0.00 0.71 96 1010.2
20260505072023 11 257 3.2 0.0 0.00 0.00 0.71 96 1010.2
20260505071534 11 298 3.2 0.0 0.00 0.00 0.71 96 1010.3
20260505071521 10 298 3.2 0.0 0.00 0.00 0.71 96 1009.3
20260505071053 11 271 3.2 0.0 0.00 0.00 0.71 96 1010.4
20260505070539 10 271 1.6 0.0 0.00 0.00 0.71 96 1010.4
20260505070036 10 322 1.6 0.0 0.00 0.00 0.71 96 1010.5
20260505070017 10 322 1.6 0.0 0.00 0.00 0.71 96 1009.6
20260505065536 10 322 1.6 0.0 0.00 0.00 0.71 96 1010.5
20260505065033 10 347 0.0 0.0 0.00 0.00 0.71 96 1010.5
20260505064655 10 347 0.0 0.0 0.00 0.00 0.71 96 1009.6
20260505064542 10 103 0.0 0.0 0.00 0.00 0.71 96 1010.6
20260505064020 10 103 0.0 0.0 0.00 0.00 0.71 96 1010.7
20260505063518 10 103 0.0 0.0 0.00 0.00 0.71 96 1010.7
20260505063041 10 103 0.0 0.0 0.00 0.00 0.71 96 1010.9
20260505062522 10 115 0.0 0.0 0.00 0.00 0.71 96 1011.0
20260505062029 10 115 0.0 0.0 0.00 0.00 0.71 95 1011.0
20260505061612 9 115 0.0 0.0 0.00 0.00 0.71 95 1010.2
20260505061528 10 115 0.0 0.0 0.00 0.00 0.71 95 1010.1
20260505061030 10 115 1.6 0.0 0.00 0.00 0.69 95 1010.2
20260505060513 10 115 1.6 0.0 0.00 0.00 0.69 95 1010.3
20260505060038 9 115 3.2 0.0 0.00 0.00 0.69 95 1010.3
20260505060018 10 115 3.2 0.0 0.00 0.00 0.69 95 1010.3
20260505055517 10 115 1.6 0.0 0.00 0.00 0.66 95 1010.3
20260505055042 10 116 1.6 0.0 0.00 0.00 0.64 95 1010.4
20260505054616 9 130 1.6 0.0 0.00 0.00 0.64 95 1010.3
20260505054547 10 130 1.6 0.0 0.00 0.00 0.64 95 1010.3
20260505054013 9 130 3.2 0.0 0.00 0.00 0.61 95 1010.4
20260505053525 9 130 3.2 0.0 0.00 0.00 0.61 95 1010.5
20260505053105 9 116 3.2 0.0 0.00 0.00 0.56 95 1010.5
20260505053015 9 116 3.2 0.0 0.00 0.00 0.56 95 1010.5
20260504221603 8 307 1.6 0.0 0.00 0.00 0.00 94 1012.5
20260504221529 8 307 1.6 0.0 0.00 0.00 0.00 94 1013.4
20260504221022 8 307 3.2 0.0 0.00 0.00 0.00 94 1013.4
20260504220526 8 57 4.8 0.0 0.00 0.00 0.00 93 1013.4
20260504220156 8 59 6.4 0.0 0.00 0.00 0.00 93 1012.5
20260504220044 8 59 6.4 0.0 0.00 0.00 0.25 93 1013.4
20260504215530 8 59 8.0 0.0 0.00 0.00 0.25 93 1013.4
20260504215051 8 59 4.8 0.0 0.00 0.00 0.25 93 1013.5
20260504214602 8 59 3.2 0.0 0.00 0.00 0.25 93 1012.6
20260504214531 8 59 3.2 0.0 0.00 0.00 0.25 93 1013.5
20260504214018 8 59 4.8 0.0 0.00 0.00 0.25 93 1013.6
20260504213524 8 59 6.4 0.0 0.00 0.00 0.25 93 1013.7
20260504213058 8 59 6.4 0.0 0.00 0.00 0.25 93 1012.8
20260504213027 8 59 4.8 0.0 0.00 0.00 0.25 93 1013.7
20260504212542 8 59 3.2 0.0 0.00 0.00 0.25 92 1013.6
20260504212028 8 59 1.6 0.0 0.00 0.00 0.25 92 1013.6
20260504211619 8 59 3.2 0.0 0.00 0.00 0.25 92 1012.8
20260504211529 8 59 3.2 0.0 0.00 0.00 0.25 92 1013.7
20260504211024 8 59 1.6 0.0 0.00 0.00 0.25 92 1013.8
20260504210522 8 60 1.6 0.0 0.00 0.00 0.25 92 1013.7
20260504210108 8 60 3.2 0.0 0.00 0.00 0.25 92 1012.9
20260504210043 8 60 4.8 0.0 0.00 0.00 0.25 92 1013.8
20260504205544 8 60 6.4 0.0 0.00 0.00 0.25 91 1013.8
20260504205036 8 63 4.8 0.0 0.00 0.00 0.25 91 1013.9
20260504204524 8 55 3.2 0.0 0.00 0.00 0.25 92 1013.7
20260504204503 8 55 3.2 0.0 0.00 0.00 0.25 92 1012.8
20260504204040 8 52 4.8 0.0 0.00 0.00 0.25 92 1013.8
20260504203520 9 71 4.8 0.0 0.00 0.00 0.25 92 1013.8
20260504203041 8 71 6.4 0.0 0.00 0.00 0.25 92 1012.9
20260504203016 9 71 6.4 0.0 0.00 0.00 0.25 92 1013.8
20260504202522 9 71 6.4 0.0 0.00 0.00 0.25 92 1013.9
20260504202026 9 71 8.0 0.0 0.00 0.00 0.25 92 1013.8
20260504201554 8 66 8.0 0.0 0.00 0.00 0.25 92 1012.9
20260504201516 9 60 8.0 0.0 0.00 0.00 0.25 92 1013.8
20260504201023 9 92 6.4 0.0 0.00 0.00 0.25 92 1014.0
20260504200524 9 70 4.8 0.0 0.00 0.00 0.25 92 1014.1
20260504200059 8 70 3.2 0.0 0.00 0.00 0.25 91 1013.0
20260504200027 9 70 3.2 0.0 0.00 0.00 0.25 91 1013.9
20260504195532 9 49 1.6 0.0 0.00 0.00 0.25 91 1014.0
20260504195040 9 51 1.6 0.0 0.00 0.00 0.25 91 1014.2
20260504194627 9 59 1.6 0.0 0.00 0.00 0.25 91 1013.3
20260504194538 9 357 1.6 0.0 0.00 0.00 0.25 91 1014.2